Location: Lone Wolf Observatory
(41.0360°N, 89.2260°W)
Time: 22:37:09
(UTC-05:00)

Amateur Radio Satellites - All Passes

Search period start: 28 April 2017 22:07
Search period end: 29 April 2017 22:07
Location: Lone Wolf Observatory, 41.0360°N, 89.2260°W

Satellite Date Start Highest point End Downlink Frequencies (MHz)
Time Altitude Azimuth
LO-87 28 Apr 22:12:41 22:14:52 15° 67° (ENE) 22:17:02 145.935 - 145.965
UNISAT 6 28 Apr 22:13:01 22:16:21 21° 94° (E) 22:19:43 437.425
PRISM 28 Apr 22:32:09 22:36:14 55° 100° (E) 22:40:16 437.425
BEESAT 3 28 Apr 22:34:17 22:38:18 75° 239° (WSW) 22:42:16 437.485
BEESAT 2 28 Apr 22:38:33 22:42:30 45° 53° (NE) 22:46:23 435.950
DELFI C3 28 Apr 22:43:45 22:46:51 21° 266° (W) 22:49:59 145.870
OBJECT BX 28 Apr 22:49:35 22:52:24 21° 265° (W) 22:55:13 145.990 - 145.960
FO-29 28 Apr 22:55:08 23:00:12 46° 100° (E) 23:05:37 435.910
TIGRISAT 28 Apr 23:26:57 23:31:11 61° 286° (WNW) 23:35:28 435.000
ESTCUBE 1 28 Apr 23:32:28 23:36:57 79° 76° (ENE) 23:41:30 437.505/2401.250
POLYITAN 1 28 Apr 23:34:09 23:35:19 11° 90° (E) 23:36:28 437.675
VELOX 1 28 Apr 23:36:00 23:39:36 25° 67° (ENE) 23:43:13 145.980
QB50P2 28 Apr 23:39:52 23:42:11 14° 92° (E) 23:44:30 145.880/145.840
LO-87 28 Apr 23:44:42 23:48:01 33° 262° (W) 23:51:21 145.935 - 145.965
AIST 2D 28 Apr 23:49:10 23:52:20 30° 97° (E) 23:55:29 435.315
UNISAT 6 28 Apr 23:49:16 23:53:06 32° 290° (WNW) 23:56:59 437.425
NANOSAT C BR1 28 Apr 23:58:42 00:01:45 20° 94° (E) 00:04:49 145.865
50 SAT 29 Apr 00:03:15 00:05:58 22° 69° (ENE) 00:08:42 437.505
PRISM 29 Apr 00:09:04 00:11:01 13° 297° (WNW) 00:12:59 437.425
BEESAT 2 29 Apr 00:17:22 00:19:53 16° 250° (WSW) 00:22:22 435.950
SPROUT 29 Apr 00:19:13 00:23:26 65° 75° (ENE) 00:27:40 437.525
DX 1 29 Apr 00:19:40 00:23:22 27° 68° (ENE) 00:27:05 434.975-435.025
DUCHIFAT 1 29 Apr 00:26:31 00:30:22 36° 98° (E) 00:34:12 145.980
EO-79 29 Apr 00:27:21 00:31:23 45° 99° (E) 00:35:25 145.935-145.965
NO-84 29 Apr 00:35:52 00:37:15 12° 22° (NNE) 00:38:36 435.350 FM
FO-29 29 Apr 00:41:06 00:45:05 22° 295° (WNW) 00:49:12 435.910
PCSat 29 Apr 00:46:10 00:48:55 14° 103° (ESE) 00:51:41 145.827
POLYITAN 1 29 Apr 01:07:20 01:11:28 60° 286° (WNW) 01:15:37 437.675
VELOX 1 29 Apr 01:11:56 01:15:54 31° 263° (W) 01:19:54 145.980
QB50P2 29 Apr 01:14:11 01:18:13 46° 287° (WNW) 01:22:15 145.880/145.840
UKube-1 29 Apr 01:16:48 01:21:07 80° 76° (ENE) 01:25:28 .
BUGSAT 1 29 Apr 01:18:14 01:22:03 42° 99° (E) 01:25:52 437.445
AIST 2D 29 Apr 01:23:08 01:25:17 15° 292° (WNW) 01:27:26 435.315
NANOSAT C BR1 29 Apr 01:33:46 01:37:32 33° 290° (WNW) 01:41:18 145.865
BEESAT 29 Apr 01:34:14 01:35:36 11° 59° (ENE) 01:36:58 436.000
50 SAT 29 Apr 01:36:07 01:38:48 21° 265° (W) 01:41:31 437.505
Oscar 19 29 Apr 01:52:43 01:57:27 34° 97° (E) 02:02:09 437.125/150
DX 1 29 Apr 01:55:45 01:59:28 27° 264° (W) 02:03:12 434.975-435.025
SPROUT 29 Apr 01:58:49 01:59:45 11° 270° (W) 02:00:41 437.525
DUCHIFAT 1 29 Apr 02:02:50 02:05:47 19° 294° (WNW) 02:08:43 145.980
EO-79 29 Apr 02:04:15 02:06:46 16° 295° (WNW) 02:09:18 145.935-145.965
NO-84 29 Apr 02:12:18 02:15:13 84° 42° (NE) 02:18:03 435.350 FM
ITUPSAT 1 29 Apr 02:13:35 02:17:32 27° 67° (ENE) 02:21:30 437.325
Gurwin Techsat 1B 29 Apr 02:14:34 02:19:20 33° 96° (E) 02:24:04 435.225
PCSat 29 Apr 02:26:12 02:31:36 77° 300° (WNW) 02:37:04 145.827
MOZHAYETS 4 29 Apr 02:39:49 02:43:21 23° 67° (ENE) 02:46:55
BUGSAT 1 29 Apr 02:54:43 02:57:04 15° 295° (WNW) 02:59:25 437.445
AO-7 29 Apr 02:58:44 03:03:24 16° 90° (E) 03:08:04 .
BEESAT 29 Apr 03:07:54 03:12:39 86° 256° (WSW) 03:17:26 436.000
ITAMSAT 1 29 Apr 03:24:40 03:28:37 22° 94° (E) 03:32:33 435.822/435.867
YUBILEINY 29 Apr 03:27:54 03:35:12 32° 84° (E) 03:42:30 435.215
Oscar 19 29 Apr 03:32:11 03:36:39 29° 293° (WNW) 03:41:05 437.125/150
CUBESAT XI-V 29 Apr 03:38:24 03:41:23 17° 64° (ENE) 03:44:22 437.345
ITUPSAT 1 29 Apr 03:50:59 03:55:14 32° 263° (W) 03:59:30 437.325
Gurwin Techsat 1B 29 Apr 03:54:32 03:59:13 32° 293° (WNW) 04:03:51 435.225
KKS-1 29 Apr 04:09:04 04:13:08 35° 70° (ENE) 04:17:12 437.445
PCSat 29 Apr 04:13:00 04:15:56 14° 320° (NW) 04:18:52 145.827
MOZHAYETS 4 29 Apr 04:16:09 04:20:19 35° 263° (W) 04:24:29
STARS 29 Apr 04:33:38 04:37:23 28° 68° (ENE) 04:41:09 437.465
SO-50 29 Apr 04:46:43 04:48:06 11° 107° (ESE) 04:49:29 436.795
AO-7 29 Apr 04:48:54 04:57:17 83° 108° (ESE) 05:05:37 .
ITAMSAT 1 29 Apr 05:03:22 05:08:16 45° 290° (WNW) 05:13:11 435.822/435.867
CUBESAT XI-V 29 Apr 05:13:48 05:18:19 51° 261° (W) 05:22:54 437.345
YUBILEINY 29 Apr 05:23:02 05:31:30 55° 283° (WNW) 05:40:02 435.215
KKS-1 29 Apr 05:46:20 05:49:45 21° 266° (W) 05:53:11 437.445
STARS 29 Apr 06:09:57 06:13:40 26° 264° (W) 06:17:23 437.465
M-CUBED/EXP-1 PRIME 29 Apr 06:17:50 06:21:11 20° 60° (ENE) 06:24:32 437.505
SO-50 29 Apr 06:23:17 06:27:55 79° 305° (NW) 06:32:30 436.795
CUTE-I 29 Apr 06:30:52 06:35:20 27° 95° (E) 06:39:46 437.470
RS-15 29 Apr 06:38:17 06:49:38 52° 110° (ESE) 07:01:19 29.354- 29.394
AO-7 29 Apr 06:42:57 06:49:07 24° 307° (NW) 06:55:17 .
ISS 29 Apr 06:45:04 06:47:08 16° 131° (SE) 06:49:13 437.550
XW-2D 29 Apr 06:45:51 06:49:29 41° 98° (E) 06:53:07 145.860 - 145.880
XW-2B 29 Apr 06:52:48 06:56:31 49° 99° (E) 07:00:14 145.730 - 145.750
HO-68 29 Apr 06:54:31 06:57:45 13° 88° (E) 07:00:59 435.675
STRAND 1 29 Apr 06:54:59 06:59:43 40° 70° (ENE) 07:04:27 437.568
KAITUO 1B 29 Apr 06:55:45 06:59:22 42° 99° (E) 07:02:58 145.475/437.950
DOVE 4 29 Apr 06:56:56 07:01:31 89° 88° (E) 07:05:49 437.250
XW-2C 29 Apr 07:04:46 07:08:36 72° 102° (ESE) 07:12:25 145.795 - 145.815
LilacSat-2 29 Apr 07:06:58 07:10:50 81° 103° (ESE) 07:14:41 437.200
CUTE 1.7 + AOD 2 29 Apr 07:15:00 07:16:34 12° 90° (E) 07:18:07 437.475
XW-2F 29 Apr 07:28:14 07:31:59 59° 286° (WNW) 07:35:44 145.980 - 146.000
SEEDS 29 Apr 07:30:02 07:31:08 11° 89° (E) 07:32:13 437.485
NUDT-PHONESAT 29 Apr 07:31:08 07:34:51 66° 283° (WNW) 07:38:33 437.300
Tancredo 1 29 Apr 07:37:05 07:40:09 73° 142° (SE) 07:43:15 437.200
M-CUBED/EXP-1 PRIME 29 Apr 07:50:44 07:55:13 49° 256° (WSW) 07:59:46 437.505
SO-50 29 Apr 08:06:57 08:09:07 13° 322° (NW) 08:11:16 436.795
CUTE-I 29 Apr 08:10:34 08:15:27 38° 291° (WNW) 08:20:19 437.470
ISS 29 Apr 08:20:07 08:23:20 57° 327° (NNW) 08:26:33 437.550
XW-2D 29 Apr 08:21:16 08:23:18 14° 294° (WNW) 08:25:22 145.860 - 145.880
AAUSAT CUBESAT 2 29 Apr 08:27:25 08:30:48 23° 94° (E) 08:34:09 437.432
XW-2B 29 Apr 08:28:42 08:30:17 12° 295° (WNW) 08:31:52 145.730 - 145.750
UWE-3 29 Apr 08:29:01 08:32:18 22° 94° (E) 08:35:38 435.000/436.395/437.385
XW-2A 29 Apr 08:29:46 08:33:08 83° 283° (WNW) 08:36:30 145.665 - 145.685
KAITUO 1B 29 Apr 08:31:03 08:33:01 14° 294° (WNW) 08:34:57 145.475/437.950
STRAND 1 29 Apr 08:34:55 08:39:00 24° 266° (W) 08:43:06 437.568
HO-68 29 Apr 08:39:13 08:46:28 82° 105° (ESE) 08:53:41 435.675
CUBEBUG 2 29 Apr 08:47:38 08:51:46 59° 101° (E) 08:55:58 437.445
CUTE 1.7 + AOD 2 29 Apr 08:48:31 08:52:45 59° 285° (WNW) 08:56:59 437.475
RS-15 29 Apr 08:50:22 09:02:09 54° 314° (NW) 09:14:17 29.354- 29.394
TIGRISAT 29 Apr 08:52:18 08:53:22 11° 62° (ENE) 08:54:26 435.000
SEEDS 29 Apr 09:02:59 09:07:13 63° 285° (WNW) 09:11:25 437.485
O/OREOS (USA 219) 29 Apr 09:06:49 09:09:55 18° 100° (E) 09:13:02 437.305
FO-29 29 Apr 09:08:47 09:13:07 21° 64° (ENE) 09:17:09 435.910
UNISAT 6 29 Apr 09:12:08 09:15:14 19° 67° (ENE) 09:18:20 437.425
Tancredo 1 29 Apr 09:13:58 09:16:20 20° 340° (NNW) 09:18:42 437.200
ZACube-1 29 Apr 09:17:20 09:21:23 43° 98° (E) 09:25:31 437.345
PRISM 29 Apr 09:21:01 09:24:52 38° 71° (ENE) 09:28:45 437.425
AO-73 29 Apr 09:22:27 09:26:31 44° 99° (E) 09:30:40 145.935
PCSat 29 Apr 09:32:14 09:35:23 15° 41° (NE) 09:38:31 145.827
Oscar 11 29 Apr 09:34:28 09:38:43 50° 100° (E) 09:42:56 .
ISS 29 Apr 09:58:12 10:00:21 16° 346° (NNW) 10:02:31 437.550
AAUSAT CUBESAT 2 29 Apr 10:02:38 10:06:14 28° 290° (WNW) 10:09:49 437.432
UWE-3 29 Apr 10:05:04 10:08:47 31° 290° (WNW) 10:12:33 435.000/436.395/437.385
OBJECT BX 29 Apr 10:17:42 10:20:57 30° 97° (E) 10:24:13 145.990 - 145.960
DELFI C3 29 Apr 10:19:49 10:23:41 45° 99° (E) 10:27:30 145.870
TIGRISAT 29 Apr 10:25:07 10:29:28 73° 257° (WSW) 10:33:46 435.000
AIST 2D 29 Apr 10:25:12 10:26:30 12° 66° (ENE) 10:27:48 435.315
CUBEBUG 2 29 Apr 10:26:12 10:27:55 12° 296° (WNW) 10:29:39 437.445
HO-68 29 Apr 10:28:21 10:33:22 21° 304° (NW) 10:38:23 435.675
QB50P2 29 Apr 10:33:31 10:34:59 12° 62° (ENE) 10:36:27 145.880/145.840
O/OREOS (USA 219) 29 Apr 10:44:34 10:48:57 44° 297° (WNW) 10:53:23 437.305
UNISAT 6 29 Apr 10:47:39 10:51:42 37° 262° (W) 10:55:43 437.425
NANOSAT C BR1 29 Apr 10:51:18 10:53:46 15° 64° (ENE) 10:56:13 145.865
FO-29 29 Apr 10:51:45 10:57:53 57° 258° (WSW) 11:03:24 435.910
Tancredo 1 29 Apr 10:51:54 10:53:09 12° 0° (N) 10:54:22 437.200
ZACube-1 29 Apr 10:54:37 10:57:21 17° 294° (WNW) 11:00:07 437.345
PRISM 29 Apr 10:57:29 11:00:16 17° 267° (W) 11:03:05 437.425
AO-73 29 Apr 10:59:45 11:02:25 16° 294° (WNW) 11:05:07 145.935
RS-15 29 Apr 11:08:54 11:18:28 25° 345° (NNW) 11:28:04 29.354- 29.394
Oscar 11 29 Apr 11:11:52 11:14:25 15° 296° (WNW) 11:16:58 .
LO-87 29 Apr 11:12:18 11:14:45 17° 94° (E) 11:17:11 145.935 - 145.965
PCSat 29 Apr 11:14:10 11:19:39 82° 61° (ENE) 11:25:04 145.827
DUCHIFAT 1 29 Apr 11:18:14 11:21:44 26° 69° (ENE) 11:25:14 145.980
EO-79 29 Apr 11:19:31 11:23:18 33° 70° (ENE) 11:27:05 145.935-145.965
ESTCUBE 1 29 Apr 11:26:08 11:29:04 17° 92° (E) 11:31:59 437.505/2401.250
ISS 29 Apr 11:36:07 11:37:52 14° 7° (N) 11:39:36 437.550
OBJECT BX 29 Apr 11:51:59 11:54:25 17° 293° (WNW) 11:56:51 145.990 - 145.960
DELFI C3 29 Apr 11:55:53 11:58:04 14° 295° (WNW) 12:00:14 145.870
AIST 2D 29 Apr 11:56:03 11:59:20 40° 262° (W) 12:02:38 435.315
POLYITAN 1 29 Apr 11:59:12 12:03:25 85° 257° (WSW) 12:07:38 437.675
AO-85 29 Apr 12:03:19 12:07:33 59° 119° (ESE) 12:11:34 145.980
QB50P2 29 Apr 12:06:02 12:10:13 65° 258° (WSW) 12:14:25 145.880/145.840
SPROUT 29 Apr 12:07:35 12:08:33 11° 90° (E) 12:09:32 437.525
BUGSAT 1 29 Apr 12:07:43 12:11:19 29° 70° (ENE) 12:14:52 437.445
BEESAT 3 29 Apr 12:24:54 12:27:33 18° 111° (ESE) 12:30:14 437.485
NANOSAT C BR1 29 Apr 12:25:02 12:29:05 47° 260° (W) 12:33:09 145.865
Tancredo 1 29 Apr 12:27:34 12:29:57 20° 20° (NNE) 12:32:19 437.200
LO-87 29 Apr 12:45:11 12:48:12 26° 290° (WNW) 12:51:12 145.935 - 145.965
DUCHIFAT 1 29 Apr 12:53:51 12:57:20 25° 264° (W) 13:00:49 145.980
EO-79 29 Apr 12:55:59 12:59:07 20° 266° (W) 13:02:15 145.935-145.965
50 SAT 29 Apr 12:59:11 13:01:58 22° 96° (E) 13:04:43 437.505
PCSat 29 Apr 12:59:53 13:02:16 13° 257° (WSW) 13:04:39 145.827
VELOX 1 29 Apr 13:01:26 13:05:43 47° 100° (E) 13:09:57 145.980
ESTCUBE 1 29 Apr 13:01:44 13:06:05 46° 288° (WNW) 13:10:25 437.505/2401.250
UKube-1 29 Apr 13:05:39 13:07:39 13° 91° (E) 13:09:39 .
Oscar 19 29 Apr 13:09:15 13:14:12 50° 71° (ENE) 13:19:13 437.125/150
ISS 29 Apr 13:12:09 13:15:08 31° 26° (NNE) 13:18:05 437.550
SO-50 29 Apr 13:15:45 13:18:04 14° 38° (NE) 13:20:23 436.795
RS-15 29 Apr 13:26:48 13:36:47 27° 21° (NNE) 13:46:31 29.354- 29.394
Gurwin Techsat 1B 29 Apr 13:35:22 13:40:29 52° 71° (ENE) 13:45:38 435.225
YUBILEINY 29 Apr 13:38:33 13:43:14 15° 59° (ENE) 13:47:54 435.215
SPROUT 29 Apr 13:40:39 13:44:52 63° 286° (WNW) 13:49:02 437.525
DX 1 29 Apr 13:43:09 13:47:24 50° 100° (E) 13:51:36 434.975-435.025
BUGSAT 1 29 Apr 13:43:28 13:46:40 22° 265° (W) 13:49:51 437.445
AO-85 29 Apr 13:45:37 13:48:15 16° 316° (NW) 13:50:48 145.980
AO-7 29 Apr 13:57:25 14:03:50 26° 54° (NE) 14:10:16 .
BEESAT 3 29 Apr 14:01:05 14:04:49 40° 308° (NW) 14:08:37 437.485
Tancredo 1 29 Apr 14:03:01 14:06:07 72° 218° (SW) 14:09:11 437.200
BEESAT 2 29 Apr 14:06:43 14:10:41 88° 131° (SE) 14:14:43 435.950
50 SAT 29 Apr 14:32:10 14:34:46 20° 291° (WNW) 14:37:22 437.505
VELOX 1 29 Apr 14:38:57 14:41:46 17° 296° (WNW) 14:44:34 145.980
UKube-1 29 Apr 14:39:47 14:44:01 54° 287° (WNW) 14:48:12 .
ITAMSAT 1 29 Apr 14:42:18 14:46:55 34° 68° (ENE) 14:51:33 435.822/435.867
ISS 29 Apr 14:48:39 14:51:37 33° 223° (SW) 14:54:35 437.550
Oscar 19 29 Apr 14:50:05 14:53:47 20° 267° (W) 14:57:31 437.125/150
SO-50 29 Apr 14:54:41 14:59:13 87° 58° (ENE) 15:03:43 436.795
BEESAT 29 Apr 15:08:37 15:12:28 24° 95° (E) 15:16:18 436.000
Gurwin Techsat 1B 29 Apr 15:16:55 15:20:43 20° 267° (W) 15:24:32 435.225
DX 1 29 Apr 15:20:34 15:23:10 16° 296° (WNW) 15:25:44 434.975-435.025
YUBILEINY 29 Apr 15:32:53 15:41:41 75° 81° (E) 15:50:30 435.215
RS-15 29 Apr 15:40:12 15:52:26 64° 51° (NE) 16:04:03 29.354- 29.394
BEESAT 2 29 Apr 15:47:26 15:49:03 12° 321° (NW) 15:50:40 435.950
AO-7 29 Apr 15:47:31 15:55:48 76° 254° (WSW) 16:04:08 .
ITUPSAT 1 29 Apr 15:50:45 15:55:30 63° 102° (ESE) 16:00:15 437.325
MOZHAYETS 4 29 Apr 16:10:34 16:15:06 52° 100° (E) 16:19:37
ITAMSAT 1 29 Apr 16:21:52 16:26:21 29° 264° (W) 16:30:52 435.822/435.867
DOVE 4 29 Apr 16:27:22 16:29:09 12° 60° (ENE) 16:30:57 437.250
BEESAT 29 Apr 16:45:57 16:50:17 36° 291° (WNW) 16:54:37 436.000
CUBESAT XI-V 29 Apr 17:10:18 17:14:44 39° 98° (E) 17:19:07 437.345
HO-68 29 Apr 17:25:42 17:27:58 12° 49° (NE) 17:30:14 435.675
XW-2D 29 Apr 17:27:34 17:30:20 20° 68° (ENE) 17:33:07 145.860 - 145.880
ITUPSAT 1 29 Apr 17:30:07 17:32:48 15° 298° (WNW) 17:35:29 437.325
NO-84 29 Apr 17:30:50 17:32:32 13° 126° (SE) 17:34:12 435.350 FM
YUBILEINY 29 Apr 17:31:13 17:37:31 23° 280° (W) 17:43:52 435.215
XW-2B 29 Apr 17:34:21 17:37:19 23° 69° (ENE) 17:40:19 145.730 - 145.750
KKS-1 29 Apr 17:35:56 17:40:22 72° 103° (ESE) 17:44:46 437.445
KAITUO 1B 29 Apr 17:36:18 17:38:59 19° 68° (ENE) 17:41:40 145.475/437.950
XW-2C 29 Apr 17:46:00 17:49:21 32° 71° (ENE) 17:52:42 145.795 - 145.815
AO-7 29 Apr 17:46:02 17:49:49 14° 272° (W) 17:53:38 .
LilacSat-2 29 Apr 17:48:40 17:52:07 36° 72° (ENE) 17:55:36 437.200
MOZHAYETS 4 29 Apr 17:48:57 17:51:49 17° 296° (WNW) 17:54:43
CUTE-I 29 Apr 17:52:21 17:57:23 44° 70° (ENE) 18:02:25 437.470
RS-15 29 Apr 17:53:29 18:04:17 40° 254° (WSW) 18:14:40 29.354- 29.394
STARS 29 Apr 17:58:26 18:02:43 53° 101° (E) 18:06:58 437.465
DOVE 4 29 Apr 18:00:46 18:06:04 86° 77° (ENE) 18:11:16 437.250
XW-2F 29 Apr 18:08:36 18:12:16 59° 75° (ENE) 18:15:58 145.980 - 146.000
NUDT-PHONESAT 29 Apr 18:10:02 18:13:34 49° 74° (ENE) 18:17:08 437.300
CUBESAT XI-V 29 Apr 18:48:14 18:51:51 22° 294° (WNW) 18:55:27 437.345
XW-2A 29 Apr 19:01:06 19:04:00 28° 72° (ENE) 19:06:55 145.665 - 145.685
XW-2D 29 Apr 19:01:11 19:04:21 26° 264° (W) 19:07:34 145.860 - 145.880
NO-84 29 Apr 19:05:58 19:09:46 75° 319° (NW) 19:13:15 435.350 FM
STRAND 1 29 Apr 19:07:10 19:09:33 13° 90° (E) 19:11:56 437.568
HO-68 29 Apr 19:07:15 19:14:13 60° 69° (ENE) 19:21:15 435.675
XW-2B 29 Apr 19:08:27 19:11:26 23° 265° (W) 19:14:27 145.730 - 145.750
KAITUO 1B 29 Apr 19:09:40 19:12:49 26° 264° (W) 19:16:00 145.475/437.950
KKS-1 29 Apr 19:14:45 19:16:18 12° 299° (WNW) 19:17:52 437.445
O/OREOS (USA 219) 29 Apr 19:15:29 19:19:41 34° 61° (ENE) 19:23:50 437.305
AAUSAT CUBESAT 2 29 Apr 19:18:06 19:20:39 16° 65° (ENE) 19:23:13 437.432
XW-2C 29 Apr 19:21:14 19:23:37 16° 267° (W) 19:26:01 145.795 - 145.815
LilacSat-2 29 Apr 19:24:26 19:26:32 14° 268° (W) 19:28:40 437.200
UWE-3 29 Apr 19:26:30 19:29:20 18° 66° (ENE) 19:32:09 435.000/436.395/437.385
CUTE-I 29 Apr 19:33:22 19:37:34 24° 266° (W) 19:41:49 437.470
STARS 29 Apr 19:36:11 19:38:36 15° 297° (WNW) 19:41:01 437.465
CUTE 1.7 + AOD 2 29 Apr 19:40:27 19:44:40 88° 257° (WSW) 19:48:57 437.475
DOVE 4 29 Apr 19:42:38 19:44:17 11° 272° (W) 19:45:55 437.250
CUBEBUG 2 29 Apr 19:45:24 19:49:33 47° 73° (ENE) 19:53:36 437.445
NUDT-PHONESAT 29 Apr 19:47:37 19:47:46 10° 270° (W) 19:47:56 437.300
SEEDS 29 Apr 19:53:56 19:58:06 84° 80° (E) 20:02:21 437.485
ZACube-1 29 Apr 20:13:08 20:16:51 32° 71° (ENE) 20:20:32 437.345
AO-73 29 Apr 20:17:56 20:21:38 32° 71° (ENE) 20:25:20 145.935
Oscar 11 29 Apr 20:28:58 20:32:55 37° 71° (ENE) 20:36:54 .
AO-85 29 Apr 20:34:19 20:38:08 45° 53° (NE) 20:42:08 145.980
XW-2A 29 Apr 20:34:56 20:36:49 14° 267° (W) 20:38:41 145.665 - 145.685
BEESAT 3 29 Apr 20:41:29 20:43:35 14° 41° (NE) 20:45:38 437.485
STRAND 1 29 Apr 20:44:08 20:49:13 71° 287° (WNW) 20:54:18 437.568
NO-84 29 Apr 20:45:43 20:47:45 14° 336° (NNW) 20:49:41 435.350 FM
AAUSAT CUBESAT 2 29 Apr 20:51:47 20:55:44 43° 262° (W) 20:59:44 437.432
O/OREOS (USA 219) 29 Apr 20:55:17 20:58:53 23° 258° (WSW) 21:02:26 437.305
HO-68 29 Apr 20:56:35 21:02:20 26° 266° (W) 21:08:08 435.675
OBJECT BX 29 Apr 20:56:38 20:58:31 14° 66° (ENE) 21:00:25 145.990 - 145.960
UWE-3 29 Apr 21:01:33 21:05:31 38° 262° (W) 21:09:26 435.000/436.395/437.385
M-CUBED/EXP-1 PRIME 29 Apr 21:04:23 21:08:26 59° 291° (WNW) 21:12:08 437.505
DELFI C3 29 Apr 21:05:14 21:08:33 25° 69° (ENE) 21:11:52 145.870
CUBEBUG 2 29 Apr 21:24:01 21:26:23 14° 268° (W) 21:28:44 437.445
ZACube-1 29 Apr 21:50:06 21:53:11 20° 266° (W) 21:56:16 437.345
AO-73 29 Apr 21:54:54 21:57:56 19° 266° (W) 22:00:58 145.935
